Dewpoint
59 59 59 59 58 57 55 53 51 49 49 49 50 50 49 49 49 49 49 51 52 52 53 53 52 52 52 51 50 50 51 51 51 52 53 57 59 57
59 59 59 58 58 57 56 54 52 50 46 48 49 49 48 49 48 47 48 49 50 51 52 51 51 50 49 49 49 50 51 51 50 52 53 56 58 58
59 59 58 57 57 56 55 54 53 51 49 46 47 47 47 47 46 46 46 45 45 48 50 50 50 50 49 49 48 48 49 50 51 51 52 55 58 58
58 58 57 56 56 55 54 53 52 50 49 45 46 46 46 44 43 44 44 44 43 44 46 48 49 49 49 47 47 47 47 49 51 51 52 52 56 56
58 58 57 55 54 53 52 51 50 49 47 45 44 43 43 42 42 42 41 41 42 42 43 44 47 48 49 47 46 45 45 48 51 50 51 51 52 52
58 57 56 54 53 52 51 49 48 47 46 45 43 43 42 41 41 40 39 40 39 40 40 42 44 46 49 46 45 43 44 46 50 50 50 50 51 51
57 56 55 54 52 51 50 48 47 46 45 44 42 41 40 40 39 38 38 38 37 37 38 39 41 43 45 45 43 42 42 44 46 47 48 48 48 49
55 54 53 51 50 50 49 48 47 46 44 42 40 39 38 38 38 38 37 36 35 36 36 37 38 40 42 42 43 42 41 41 43 44 44 43 44 47
54 51 49 48 49 49 48 48 47 46 43 41 40 39 38 38 38 37 36 36 35 36 36 36 35 36 38 40 42 43 42 40 39 42 43 42 42 43
46 46 46 45 45 45 45 43 43 42 41 40 39 38 38 38 38 37 36 36 36 36 36 35 33 34 34 35 38 41 41 38 37 38 40 41 41 42
43 43 43 43 44 43 42 40 39 38 39 38 37 38 38 38 37 36 35 34 33 34 33 35 33 32 31 31 32 37 40 40 39 36 37 38 39 40
41 42 42 42 43 42 39 37 37 37 37 37 37 37 37 37 38 37 36 33 34 34 33 34 31 30 32 30 30 31 34 38 38 37 36 36 38 39
41 40 41 42 43 43 41 38 37 36 37 34 33 31 31 31 31 32 34 35 34 34 33 32 30 29 30 31 28 30 31 32 34 36 36 35 38 38
39 39 39 41 42 43 42 38 38 36 35 32 30 29 29 28 28 28 28 30 33 33 34 32 31 30 30 30 31 27 29 30 30 32 32 34 37 39
39 38 38 40 41 42 41 39 39 34 33 31 30 29 29 28 27 28 29 29 29 29 31 32 32 32 30 30 30 26 27 29 29 29 29 30 32 34
41 40 40 40 41 40 40 40 39 35 32 31 31 30 27 27 27 27 26 26 26 25 28 29 30 32 31 31 30 29 28 27 26 28 29 29 29 31
41 38 37 36 36 36 35 35 35 35 34 33 32 30 29 28 27 26 25 25 23 22 24 26 27 27 29 29 28 30 30 28 27 26 27 28 29 31
39 36 35 35 35 34 34 33 33 33 33 33 32 32 31 29 27 26 26 26 25 25 24 23 26 24 22 24 28 27 25 25 24 26 27 26 26 29
36 35 35 34 34 34 34 33 32 32 33 32 31 31 31 30 29 26 26 25 25 24 24 24 24 23 20 17 20 28 24 22 24 26 26 26 25 26
36 34 34 33 33 32 32 32 32 32 31 31 31 31 31 29 27 26 25 25 24 23 23 22 22 24 21 19 19 24 27 24 25 24 25 27 27 29
31 32 33 33 32 32 32 32 32 31 31 31 31 31 30 29 27 27 26 26 25 23 22 22 22 25 24 24 23 23 23 27 27 24 24 25 24 25
30 30 31 32 32 32 32 31 31 31 31 31 31 31 31 29 28 27 26 26 27 25 23 22 21 25 24 23 22 22 22 24 24 29 28 26 23 20
28 28 28 29 31 31 31 31 31 31 31 31 31 31 31 29 29 29 28 27 26 25 24 23 22 24 25 25 23 23 22 22 23 23 25 29 29 28
Wind_Speed
18 16 15 13 12 11 11 12 10 11 14 7 6 5 5 4 3 2 2 2 2 4 4 5 5 4 5 6 7 8 9 9 11 14 21 24 21 19
14 17 14 13 13 12 11 11 11 11 6 7 10 7 8 6 3 3 2 3 4 5 4 5 7 8 7 7 7 7 7 9 10 15 22 24 20 12
15 16 16 15 16 15 11 12 12 9 7 6 6 8 9 8 4 2 1 4 4 5 6 6 5 5 5 4 6 6 6 8 11 14 19 25 10 10
18 17 17 13 16 16 18 17 13 9 7 12 11 10 8 6 4 4 5 3 4 5 6 7 6 5 5 1 2 4 8 9 10 11 15 20 15 11
18 18 20 19 18 15 14 19 18 15 16 8 11 4 5 3 4 4 4 3 4 6 6 6 6 7 6 3 1 3 6 9 6 7 9 10 16 17
19 21 21 24 23 22 20 18 16 14 10 11 8 6 4 3 2 5 4 1 4 5 6 5 5 7 7 6 3 2 4 7 8 7 7 7 7 10
19 20 22 24 24 21 20 19 15 12 12 14 8 6 7 6 9 5 3 2 3 2 2 3 2 2 2 5 4 3 3 4 6 7 7 4 2 5
22 20 16 22 25 26 21 21 23 21 18 15 14 11 10 9 8 8 6 2 3 2 2 4 1 4 6 4 4 3 2 2 2 3 4 4 2 2
21 19 18 13 15 17 20 20 15 14 9 16 15 14 10 14 12 11 10 6 5 1 2 5 1 5 5 6 6 5 5 4 3 3 3 2 1 2
3 4 8 8 7 11 12 12 11 9 7 8 12 11 9 11 11 8 7 5 2 4 4 4 1 4 4 4 7 7 6 4 4 3 5 4 2 2
3 6 7 8 8 9 10 12 10 7 5 7 7 7 9 10 9 8 6 5 5 4 6 3 2 3 2 3 4 8 8 7 6 6 5 5 6 6
4 3 6 7 10 12 15 16 14 13 12 10 10 9 7 9 10 9 9 10 5 4 6 6 1 1 3 2 4 3 3 7 7 7 8 8 7 4
4 3 2 7 12 13 8 10 12 10 14 12 10 8 6 7 7 7 9 10 10 6 4 5 3 3 2 3 1 1 3 3 4 4 8 9 10 10
6 8 8 10 10 10 10 9 8 9 11 13 12 12 13 12 10 9 7 7 5 5 4 5 3 5 4 1 3 2 2 3 2 4 4 5 5 13
5 6 8 11 15 15 16 13 13 10 11 12 14 13 10 9 7 6 4 3 3 3 5 5 6 5 6 5 3 1 1 1 3 6 6 7 8 5
6 6 9 12 12 11 12 14 12 13 15 14 13 10 5 7 11 8 7 7 5 4 2 5 6 6 6 8 8 9 7 3 0 5 6 6 8 8
8 4 5 8 11 12 10 10 9 10 13 12 10 9 10 10 10 8 6 7 7 5 4 3 2 4 6 3 7 10 10 9 8 5 4 10 10 12
6 7 9 10 12 12 13 13 14 15 15 14 14 14 14 15 14 9 7 9 9 7 5 2 4 0 2 7 18 15 9 11 7 7 6 7 10 11
7 8 10 10 11 11 12 13 16 16 14 16 15 15 14 14 15 14 11 10 10 9 6 5 6 5 4 7 2 15 13 7 6 5 8 10 7 4
8 10 10 10 11 13 13 15 15 13 15 16 16 15 14 14 13 14 15 13 12 10 8 6 8 10 11 7 2 1 8 7 8 8 6 6 9 10
9 10 10 12 12 12 13 13 14 14 15 15 16 15 16 15 13 13 13 15 14 11 11 10 14 14 6 3 4 4 4 9 11 9 5 8 5 4
9 9 10 10 11 12 13 13 13 13 13 14 14 15 15 15 13 13 13 13 13 12 13 9 4 9 8 11 9 8 6 7 5 14 13 11 6 6
10 10 11 11 11 11 11 12 12 12 12 13 13 13 13 14 13 13 13 14 13 12 11 10 8 8 9 11 12 9 8 9 5 6 9 17 17 14
Wind_Direction
197 193 193 195 200 193 182 174 172 199 209 208 183 190 179 173 203 221 220 256 323 317 313 344 355 359 7 14 13 4 1 350 342 340 334 328 308 247
187 191 192 195 199 196 189 197 206 204 156 174 210 176 186 195 231 256 290 339 314 318 341 328 334 347 354 5 14 13 359 348 342 354 355 342 324 233
183 189 203 193 195 193 177 200 204 199 169 197 216 184 177 197 225 255 318 287 322 330 326 310 319 336 339 357 8 7 355 352 357 1 3 8 349 176
187 188 200 190 199 192 187 197 205 187 146 206 205 199 192 202 228 253 265 279 304 315 318 319 315 305 293 28 21 4 11 1 4 9 16 32 27 120
190 194 195 190 198 199 211 193 194 186 159 183 199 191 191 184 220 255 267 300 319 313 304 302 304 294 242 179 121 25 26 15 17 44 42 47 65 52
185 200 196 190 199 200 206 206 187 193 175 158 186 186 170 178 201 232 263 246 313 336 325 293 296 296 260 172 136 77 42 36 36 82 68 44 69 91
198 206 198 194 197 200 197 196 177 179 179 178 189 197 183 183 208 199 217 292 277 240 286 273 242 251 211 151 147 125 88 63 69 74 87 85 59 78
207 209 210 202 198 195 194 185 178 188 196 191 197 210 204 199 184 192 191 200 242 237 352 311 283 249 230 204 186 160 126 65 87 99 96 97 51 79
208 205 202 205 201 192 183 175 187 183 176 186 204 207 204 196 179 189 196 194 212 233 6 284 253 276 247 219 216 210 194 192 200 179 169 129 266 67
148 185 190 171 164 164 157 143 165 162 161 192 208 205 193 177 182 181 181 184 258 258 206 249 259 269 305 258 227 217 213 226 225 206 191 190 220 300
102 128 149 151 143 146 160 163 177 177 168 181 167 167 158 152 150 133 174 178 233 239 211 223 265 295 306 299 276 228 220 226 237 224 226 223 213 204
87 103 133 171 189 177 181 178 195 200 188 169 144 147 155 167 174 188 183 203 192 217 207 203 222 292 330 19 332 304 258 249 247 238 233 219 207 199
146 182 212 222 197 196 205 196 202 184 196 185 169 163 175 189 189 188 194 198 207 217 178 174 182 174 186 293 335 337 237 229 252 267 247 234 206 184
194 205 216 212 216 211 206 224 217 187 189 186 187 195 201 203 208 200 196 203 218 202 136 172 202 196 166 264 267 352 264 257 232 250 237 266 272 198
204 227 223 222 199 196 198 203 195 182 198 206 211 209 205 206 174 158 152 173 218 223 211 201 205 196 207 205 215 259 315 252 213 238 221 229 219 221
244 236 216 210 221 212 206 203 200 189 202 214 216 208 169 173 179 171 188 190 207 204 196 213 233 218 220 229 229 244 234 263 22 230 241 248 247 226
289 255 229 214 209 211 216 224 220 213 217 217 219 210 204 200 199 187 183 184 197 176 154 186 223 253 257 230 242 236 244 248 245 236 209 249 246 236
282 264 262 241 233 225 221 223 219 223 220 218 216 210 210 208 201 196 196 196 195 201 200 193 179 312 292 252 219 236 236 247 240 214 215 236 259 241
296 278 265 257 258 254 245 231 229 224 214 218 218 212 206 204 198 199 200 198 194 194 197 182 215 181 226 236 295 210 230 234 223 217 215 219 235 233
285 277 278 268 256 253 246 238 236 229 217 221 216 213 207 203 196 205 201 203 203 195 190 193 222 203 206 224 202 32 207 226 219 232 224 226 248 260
339 321 287 274 271 266 258 247 239 234 225 217 213 207 203 197 204 204 204 205 204 198 207 219 221 220 204 152 252 258 285 237 224 218 201 218 222 216
337 332 319 310 290 277 271 263 253 243 232 220 213 206 199 195 199 200 202 203 203 202 216 224 191 175 180 206 234 249 266 300 302 242 222 214 187 210
337 329 320 317 317 306 287 273 260 252 238 230 220 212 201 197 194 194 196 196 195 201 198 215 195 189 207 211 231 235 236 257 268 277 250 233 233 237